Regional Weather Roundup
Issued by NWS Albany, NY

Home | Current Version | Previous Version | Text Only | Print | Product List | Glossary On
Versions: 1 2 3 4 5 6 7 8 9 10 11 12 13 14 15 16 17 18 19 20 21 22 23 24 25 26 27 28 29 30 31 32 33 34 35 36 37 38 39 40 41 42 43 44 45 46 47 48 49 50
000
ASUS41 KALY 220210
RWRALY

NEW YORK STATE HOURLY WEATHER ROUNDUP
NATIONAL WEATHER SERVICE ALBANY NY
1000 PM EDT THU MAY 21 2015

NOTE: "FAIR" INDICATES FEW OR NO CLOUDS BELOW 12,000 FEET WITH NO
SIGNIFICANT WEATHER AND/OR NO OBSTRUCTIONS TO VISIBILITY.

NYZ032-033-038>043-046>054-057>066-NYZ062>081-220300-
EAST


CITY           SKY/WX    TMP DP  RH WIND       PRES   REMARKS
ALBANY         CLOUDY    57  41  55 SW7       29.87R
GLENS FALLS    CLOUDY    59  39  47 S6        29.85R
POUGHKEEPSIE   CLOUDY    59  39  47 S3        29.88S
NEWBURGH       MOCLDY    57  43  58 SW8       29.90S
MONTGOMERY     CLOUDY    57  42  57 SW5       29.89S
WHITE PLAINS   MOCLDY    52  42  69 CALM      29.90F
ISLIP          CLOUDY    52  45  77 SE6       29.90F
NEW YORK CITY  CLOUDY    54  42  64 S7        29.91F
CENTRAL PARK   CLOUDY    55  42  61 CALM      29.94S
$$

NYZ005>009-017-018-044>046-055-056-220300-
CENTRAL


CITY           SKY/WX    TMP DP  RH WIND       PRES   REMARKS
FULTON         CLOUDY    52  40  63 S5        29.87R
SYRACUSE       CLOUDY    56  38  50 CALM      29.88R
ROME           CLOUDY    51  42  71 NE3       29.89R
ELMIRA         CLOUDY    54  44  69 SW10      29.90S
BINGHAMTON     CLOUDY    49  41  74 SW7       29.90R
MONTICELLO     CLOUDY    52  41  66 W5        29.91S
$$

NYZ026>034-041>043-220300-
NORTH


CITY           SKY/WX    TMP DP  RH WIND       PRES   REMARKS
WATERTOWN      MOCLDY    51  32  48 W3        29.86R
FORT DRUM      NOT AVBL
MASSENA        PTCLDY    54  31  41 SW12      29.81R
SARANAC LAKE   PTCLDY    48  28  46 SW5       29.83R
PLATTSBURGH    CLOUDY    59  29  31 VRB5      29.80R
$$

NYZ001>004-010>016-019>021-220300-
WEST


CITY           SKY/WX    TMP DP  RH WIND       PRES   REMARKS
NIAGARA FALLS  CLOUDY    52  35  52 SW14      29.89R
BUFFALO        CLOUDY    51  37  58 SW15G25   29.91S
DUNKIRK        CLOUDY    52  42  69 SW9       29.94R
JAMESTOWN      CLOUDY    48  32  53 SW9       29.95S
WELLSVILLE     CLOUDY    49  33  54 W3        29.94R
ROCHESTER      CLOUDY    55  31  39 SW12      29.89S
PENN YAN       CLOUDY    56  39  53 CALM      29.90R
$$

             KEY
       WCI = WIND CHILL INDEX
       VSB = VISIBILITY
       HX  = HEAT INDEX
$$



USA.gov is the U.S. government's official web portal to all federal, state and local government web resources and services.